Location: Basse Occidentale du Courleau
(48.3833°N, 4.8333°W)
Time: 09:03:57
(UTC+00:00)

SL-16 R/B - Pass Details

Date: 05 July 2020
Orbit: 842 x 846 km, 71.0° (Epoch: 08 August)

Event Time Altitude Azimuth Distance (km) Brightness Sun altitude
Rises 20:48:58 0° 212° (SSW) 3,390 5.2 -4.2°
Reaches altitude 10° 20:51:24 10° 214° (SW) 2,459 4.6 -4.5°
Maximum altitude 20:57:03 74° 299° (WNW) 883 2.6 -5.2°
Drops below altitude 10° 21:02:45 10° 25° (NNE) 2,477 4.9 -5.9°
Sets 21:05:13 0° 28° (NNE) 3,417 5.6 -6.2°
